FW2118 Yalikoy current weather conditions

sailwx.info

Wind from 183 at 2 knots gusting 3

Air temperature 5.0° C
Dewpoint 4.4° C

Last reported at 2019-Dec-15 19:14 UTC.
Time now 2019-Dec-15 21:44 UTC

Location: N 41°29' E 028°18'.
View on Google Maps.

See reports from other nearby stations

  
Tides and Currents Weather Stations Pressure Air Temp Water Temp Dewpoint Dewpoint Depression Visibility Wind Speed Wind Dir Waves Ship Positions
date/time (UTC)wind fromknots sea level pressurealtimeterstation pressurevisibilityair tempwater tempwave heightnotes
2019-Dec-15 19:14 183 2 gusting 3 5.0
2019-Dec-15 17:48 206 1 gusting 3 6.7
2019-Dec-15 17:43 211 1 gusting 3 6.7
2019-Dec-15 17:38 211 1 gusting 3 6.7
2019-Dec-15 17:33 211 1 gusting 3 6.7
2019-Dec-15 17:28 211 1 gusting 3 6.7
2019-Dec-15 17:23 211 1 gusting 3 6.7
2019-Dec-15 17:18 212 0 gusting 3 7.2
2019-Dec-15 17:13 212 0 gusting 3 7.2
2019-Dec-15 17:07 211 0 gusting 3 7.8
2019-Dec-15 17:02 212 0 gusting 2 7.8
2019-Dec-15 16:57 212 2 gusting 4 7.8
2019-Dec-15 16:52 212 2 gusting 4 7.8
2019-Dec-15 16:47 184 1 gusting 4 7.8
2019-Dec-15 16:42 217 1 gusting 5 7.8
2019-Dec-15 16:37 218 1 gusting 5 7.8
2019-Dec-15 16:32 183 1 gusting 3 7.8
2019-Dec-15 16:27 183 1 gusting 2 7.8
2019-Dec-15 16:22 184 1 gusting 3 7.8
2019-Dec-15 16:17 184 1 gusting 3 8.3
2019-Dec-15 16:12 184 1 gusting 3 8.3
2019-Dec-15 16:07 184 1 gusting 3 8.3
2019-Dec-15 16:02 184 1 gusting 2 8.3
2019-Dec-15 15:57 184 1 gusting 3 8.3
2019-Dec-15 15:52 184 1 gusting 3 8.3
2019-Dec-15 15:47 184 1 gusting 3 8.3
2019-Dec-15 15:42 184 1 gusting 3 8.3
2019-Dec-15 15:37 184 1 gusting 3 8.9
2019-Dec-15 15:31 184 0 gusting 3 8.9
2019-Dec-15 15:26 184 0 gusting 2 8.9
2019-Dec-15 15:21 184 1 gusting 2 9.4
2019-Dec-15 15:16 185 1 gusting 1 9.4
2019-Dec-15 15:11 185 2 gusting 3 9.4
2019-Dec-15 15:06 185 2 gusting 4 9.4
2019-Dec-15 15:01 178 0 gusting 4 9.4
2019-Dec-15 14:56 182 0 gusting 3 10.0
2019-Dec-15 14:51 183 1 gusting 3 10.0
2019-Dec-15 14:45 182 1 gusting 3 10.0
2019-Dec-15 14:40 182 1 gusting 3 10.6
2019-Dec-15 14:35 245 1 gusting 3 10.6
2019-Dec-15 14:30 193 1 gusting 2 10.6
2019-Dec-15 14:25 193 1 gusting 2 11.1
2019-Dec-15 14:20 192 1 gusting 2 11.1
2019-Dec-15 14:15 193 1 gusting 3 11.7
2019-Dec-15 14:10 193 1 gusting 4 11.7
2019-Dec-15 14:05 192 1 gusting 4 12.2
2019-Dec-15 14:00 028 12.8
2019-Dec-15 13:55 027 12.8
2019-Dec-15 13:50 027 13.3
2019-Dec-15 13:45 027 13.3
2019-Dec-15 13:40 028 1 gusting 1 13.3
2019-Dec-15 13:35 027 1 gusting 3 13.3
2019-Dec-15 13:30 028 1 gusting 3 13.3
2019-Dec-15 13:25 027 1 gusting 3 13.3
2019-Dec-15 13:20 028 2 gusting 3 13.3
2019-Dec-15 13:15 028 2 gusting 4 13.3
2019-Dec-15 13:10 027 3 gusting 6 13.3
2019-Dec-15 13:05 035 3 gusting 6 13.3
2019-Dec-15 12:59 052 3 gusting 5 13.3
2019-Dec-15 12:54 050 3 gusting 5 13.3
2019-Dec-15 12:49 046 5 gusting 6 13.3
2019-Dec-15 12:44 080 5 gusting 6 13.3
2019-Dec-15 12:39 093 3 gusting 7 13.3
2019-Dec-15 12:34 069 3 gusting 7 13.9
2019-Dec-15 12:29 059 4 gusting 6 13.9
2019-Dec-15 12:24 075 4 gusting 6 13.9
2019-Dec-15 12:19 067 4 gusting 6 13.9
2019-Dec-15 12:14 064 4 gusting 6 13.9
2019-Dec-15 12:09 083 4 gusting 6 13.9
2019-Dec-15 12:04 076 4 gusting 6 13.9
2019-Dec-15 11:59 063 2 gusting 6 14.4
2019-Dec-15 11:54 051 2 gusting 5 14.4
2019-Dec-15 11:49 061 2 gusting 5 14.4
2019-Dec-15 11:44 060 2 gusting 5 14.4
2019-Dec-15 11:39 055 1 gusting 4 14.4
2019-Dec-15 11:34 098 1 gusting 4 14.4
2019-Dec-15 11:29 129 1 gusting 4 14.4
2019-Dec-15 11:24 131 1 gusting 4 14.4
2019-Dec-15 11:19 091 2 gusting 4 14.4
2019-Dec-15 11:14 083 2 gusting 4 13.9
2019-Dec-15 11:09 080 1 gusting 4 14.4
2019-Dec-15 11:04 093 1 gusting 4 14.4
2019-Dec-15 10:59 091 2 gusting 4 14.4
2019-Dec-15 10:54 102 2 gusting 4 13.9
2019-Dec-15 10:49 045 3 gusting 4 13.9
2019-Dec-15 10:44 029 3 gusting 5 13.9
2019-Dec-15 10:39 011 3 gusting 5 13.9
2019-Dec-15 10:34 093 3 gusting 5 13.9
2019-Dec-15 10:29 030 1 gusting 5 13.9
2019-Dec-15 10:24 066 1 gusting 4 13.9
2019-Dec-15 10:19 006 3 gusting 5 13.9
2019-Dec-15 10:14 027 3 gusting 5 13.9
2019-Dec-15 10:09 024 3 gusting 5 13.3
2019-Dec-15 10:04 012 3 gusting 5 13.3
2019-Dec-15 09:59 051 2 gusting 5 13.3
2019-Dec-15 09:54 303 3 gusting 3 13.3
2019-Dec-15 09:48 303 3 gusting 4 13.3
2019-Dec-15 09:42 303 3 gusting 6 13.3
2019-Dec-15 09:38 341 3 gusting 6 13.3
2019-Dec-15 09:32 331 3 gusting 6 12.8
2019-Dec-15 09:27 321 0 gusting 6 12.2
2019-Dec-15 09:22 334 0 gusting 4 12.2
2019-Dec-15 09:18 291 1 gusting 4 12.2
2019-Dec-15 09:12 291 1 gusting 4 12.2
2019-Dec-15 09:07 246 11.7
2019-Dec-15 09:02 203 11.7
2019-Dec-15 08:57 170 11.7
2019-Dec-15 08:52 170 11.1
2019-Dec-15 08:47 170 11.1
2019-Dec-15 08:42 170 11.1
2019-Dec-15 08:36 170 11.1
2019-Dec-15 08:31 170 11.1
2019-Dec-15 08:26 327 11.1
2019-Dec-15 08:21 327 11.1
2019-Dec-15 08:15 327 11.1
2019-Dec-15 08:10 327 11.1
2019-Dec-15 08:05 327 11.1
2019-Dec-15 08:00 327 1 gusting 1 11.1
2019-Dec-15 07:55 327 1 gusting 2 11.1
2019-Dec-15 07:50 327 4 gusting 6 11.1
2019-Dec-15 07:45 327 4 gusting 7 11.1
2019-Dec-15 07:40 352 7 gusting 9 11.1
2019-Dec-15 07:35 022 7 gusting 13 11.1
2019-Dec-15 07:30 327 2 gusting 13 11.1
2019-Dec-15 07:25 001 2 gusting 13 11.1
2019-Dec-15 07:20 334 1 gusting 4 11.1
2019-Dec-15 07:15 210 1 gusting 2 11.1
2019-Dec-15 07:10 208 0 gusting 2 10.6
2019-Dec-15 07:05 208 0 gusting 3 10.6
2019-Dec-15 06:59 208 10.6
2019-Dec-15 06:54 208 10.6
2019-Dec-15 06:49 208 0 10.6
2019-Dec-15 06:44 208 0 gusting 2 10.6
2019-Dec-15 06:39 208 1 gusting 3 10.6
2019-Dec-15 06:34 208 1 gusting 3 10.6
2019-Dec-15 06:29 207 1 gusting 3 11.1
2019-Dec-15 06:24 207 1 gusting 3 11.1
2019-Dec-15 06:18 283 0 gusting 3 11.7
2019-Dec-15 06:13 288 0 gusting 3 11.7
2019-Dec-15 06:08 289 1 gusting 2 11.7
2019-Dec-15 06:03 289 1 gusting 2 11.7
2019-Dec-15 05:58 288 2 gusting 4 12.2
2019-Dec-15 05:53 288 2 gusting 4 12.2
2019-Dec-15 05:48 282 1 gusting 4 12.2
2019-Dec-15 05:42 293 1 gusting 3 12.2
2019-Dec-15 05:37 293 3 gusting 4 12.2
2019-Dec-15 05:32 293 3 gusting 5 12.2
2019-Dec-15 05:27 293 3 gusting 5 12.2
2019-Dec-15 05:22 297 3 gusting 6 12.8
2019-Dec-15 05:17 278 4 gusting 6 12.8
2019-Dec-15 05:12 287 4 gusting 9 12.8
2019-Dec-15 05:07 305 4 gusting 9 12.8
2019-Dec-15 05:02 308 4 gusting 9 12.8
2019-Dec-15 04:57 297 3 gusting 6 12.8
2019-Dec-15 04:52 299 3 gusting 6 12.8
2019-Dec-15 04:47 301 4 gusting 7 12.8
2019-Dec-15 04:42 287 4 gusting 7 12.8
2019-Dec-15 04:37 292 4 gusting 6 12.8
2019-Dec-15 04:32 301 4 gusting 8 12.8
2019-Dec-15 04:27 298 4 gusting 8 12.8
2019-Dec-15 04:22 317 4 gusting 7 12.8
2019-Dec-15 04:17 302 4 gusting 7 12.8
2019-Dec-15 04:12 284 4 gusting 12 12.2
2019-Dec-15 04:07 288 3 gusting 12 12.2
2019-Dec-15 04:02 343 3 gusting 9 11.7
2019-Dec-15 03:57 285 2 gusting 6 11.7
2019-Dec-15 03:52 305 2 gusting 5 11.1
2019-Dec-15 03:47 303 2 gusting 5 11.1
2019-Dec-15 03:42 348 2 gusting 5 10.6
2019-Dec-15 03:37 309 1 gusting 4 10.6
2019-Dec-15 03:32 238 1 gusting 3 10.0
2019-Dec-15 03:27 221 1 gusting 4 10.0
2019-Dec-15 03:22 233 1 gusting 4 10.0
2019-Dec-15 03:17 193 2 gusting 3 10.0
2019-Dec-15 03:12 192 2 gusting 4 10.0
2019-Dec-15 03:07 192 2 gusting 5 10.0
2019-Dec-15 03:02 193 2 gusting 5 10.0
2019-Dec-15 02:57 293 0 gusting 5 10.0
2019-Dec-15 02:52 302 0 gusting 3 9.4
2019-Dec-15 02:46 201 1 gusting 4 9.4
2019-Dec-15 02:41 200 2 gusting 4 9.4
2019-Dec-15 02:36 200 2 gusting 4 9.4
2019-Dec-15 02:31 201 3 gusting 4 9.4
2019-Dec-15 02:26 197 3 gusting 4 9.4
2019-Dec-15 02:21 190 0 gusting 4 8.9
2019-Dec-15 02:16 191 0 gusting 4 9.4
2019-Dec-15 02:11 192 0 gusting 3 9.4
2019-Dec-15 02:06 192 0 gusting 3 9.4
2019-Dec-15 02:01 193 0 gusting 3 8.9
2019-Dec-15 01:56 192 0 gusting 1 8.9
2019-Dec-15 01:51 192 1 gusting 3 8.9
2019-Dec-15 01:45 192 1 gusting 3 8.3
2019-Dec-15 01:40 192 8.3